Location: Biltmore Gardens
(41.6070°N, 83.4666°W)
Time: 13:36:27
(UTC+00:00)

H-2A R/B - Pass Details

Date: 14 July 2020
Orbit: 733 x 837 km, 98.2° (Epoch: 04 August)

Event Time Altitude Azimuth Distance (km) Brightness Sun altitude
Rises 01:40:05 0° 192° (SSW) 3,373 5.1 -5.9°
Reaches altitude 10° 01:42:41 10° 202° (SSW) 2,443 4.5 -6.3°
Maximum altitude 01:47:31 32° 264° (W) 1,394 3.9 -7.1°
Drops below altitude 10° 01:52:19 10° 327° (NNW) 2,434 6.0 -7.8°
Sets 01:54:55 0° 337° (NNW) 3,359 6.5 -8.2°
